DW4221 Weather Reports


time (UTC)temp
C
wind
direction
speed
KPH
gust
KPH
rain 1hr
cm
rain 24hr
cm
rain mn
cm
humidity
%
barometer
mb
20260506134552 0 30 3.2 12.9 0.00 0.00 0.00 73 1013.7
20260506133102 0 226 1.6 16.1 0.00 0.00 0.00 74 1013.8
20260506131552 0 44 1.6 9.7 0.00 0.00 0.00 75 1013.6
20260506130110 0 297 3.2 17.7 0.00 0.00 0.00 75 1013.6
20260506124551 0 270 3.2 24.1 0.00 0.00 0.00 76 1013.7
20260506123054 0 278 1.6 11.3 0.00 0.00 0.00 77 1013.6
20260506121552 -1 0 4.8 14.5 0.00 0.00 0.00 77 1013.3
20260506120054 -1 26 1.6 8.0 0.00 0.00 0.00 77 1013.2
20260506114604 -1 0 0.0 9.7 0.00 0.00 0.00 77 1012.9
20260506113052 -1 307 0.0 9.7 0.00 0.00 0.00 77 1012.7
20260506111547 -1 0 1.6 11.3 0.00 0.00 0.00 76 1012.7
20260506110054 -1 53 0.0 6.4 0.00 0.00 0.00 76 1012.7
20260506104610 -1 0 1.6 6.4 0.00 0.00 0.00 76 1012.7
20260506103055 -1 0 0.0 12.9 0.00 0.00 0.00 76 1012.6
20260506101551 -1 0 1.6 6.4 0.00 0.00 0.00 76 1012.7
20260506100054 -1 290 0.0 8.0 0.00 0.00 0.00 76 1012.8
20260506094550 -1 46 1.6 14.5 0.00 0.00 0.00 76 1012.6
20260506093052 -1 273 3.2 12.9 0.00 0.00 0.00 76 1012.7
20260506091548 -1 291 0.0 11.3 0.00 0.00 0.00 76 1012.7
20260506090051 -1 294 0.0 3.2 0.00 0.00 0.00 76 1012.5
20260506084555 -1 217 1.6 6.4 0.00 0.00 0.00 75 1012.6
20260506083051 -1 36 3.2 11.3 0.00 0.00 0.00 76 1012.5
20260506081557 -1 273 1.6 8.0 0.00 0.00 0.00 74 1012.5
20260506073057 -1 288 0.0 11.3 0.00 0.00 0.00 74 1012.4
20260506071621 -1 236 1.6 11.3 0.00 0.00 0.00 73 1012.5
20260506061556 0 0 1.6 9.7 0.00 0.00 0.00 71 1012.3
20260506044609 0 268 3.2 9.7 0.00 0.00 0.00 69 1012.0
20260506043056 0 43 1.6 16.1 0.00 0.00 0.00 68 1012.0
20260506041554 0 304 3.2 16.1 0.00 0.00 0.00 68 1012.3
20260506040053 0 30 1.6 16.1 0.00 0.00 0.00 69 1012.0
20260506034552 0 269 1.6 14.5 0.00 0.00 0.00 68 1012.2
20260506033052 0 300 3.2 20.9 0.00 0.00 0.00 67 1011.9
20260506031555 0 292 1.6 6.4 0.00 0.00 0.00 68 1012.0
20260506030056 0 355 1.6 8.0 0.00 0.00 0.00 67 1012.0
20260506024555 0 355 1.6 12.9 0.00 0.00 0.00 67 1011.8
20260506023055 1 308 1.6 11.3 0.00 0.00 0.00 67 1011.8
20260506021558 1 277 3.2 16.1 0.00 0.00 0.00 67 1011.6
20260506020055 1 238 3.2 14.5 0.00 0.00 0.00 66 1011.6
20260506014550 1 270 3.2 14.5 0.00 0.00 0.00 65 1011.3
20260506013052 1 0 1.6 11.3 0.00 0.00 0.00 67 1011.2
20260506011553 1 355 1.6 14.5 0.00 0.00 0.00 66 1011.1
20260506010055 1 349 3.2 11.3 0.00 0.00 0.00 65 1011.1
20260506004548 1 288 1.6 17.7 0.00 0.00 0.00 64 1011.1
20260506003059 1 51 1.6 19.3 0.00 0.00 0.00 63 1011.0
20260506001605 1 286 3.2 14.5 0.00 0.00 0.00 63 1010.8
20260506000054 2 207 3.2 14.5 0.00 0.00 0.00 62 1010.4
20260505234609 2 290 4.8 14.5 0.00 0.00 0.00 60 1010.4
20260505233053 2 121 4.8 17.7 0.00 0.00 0.00 60 1010.2
20260505231557 2 247 4.8 12.9 0.00 0.00 0.00 59 1010.2
20260505230058 2 248 3.2 17.7 0.00 0.00 0.00 60 1010.0
20260505224554 2 290 3.2 14.5 0.00 0.00 0.00 58 1010.1
20260505223104 3 319 3.2 12.9 0.00 0.00 0.00 56 1009.8
20260505221549 3 306 4.8 20.9 0.00 0.00 0.00 56 1009.6
20260505220054 3 302 6.4 16.1 0.00 0.00 0.00 58 1009.5
20260505214602 3 272 4.8 19.3 0.00 0.00 0.00 58 1009.5
20260505213057 3 236 1.6 14.5 0.00 0.00 0.00 57 1009.3
20260505211617 3 281 3.2 19.3 0.00 0.00 0.00 58 1009.6
20260505210055 3 233 4.8 14.5 0.00 0.00 0.00 57 1009.4
20260505204556 3 267 6.4 25.7 0.00 0.00 0.00 57 1009.4
20260505203114 2 43 4.8 17.7 0.00 0.00 0.00 59 1009.5
20260505201552 3 285 4.8 16.1 0.00 0.00 0.00 59 1009.4
20260505200051 2 278 6.4 19.3 0.00 0.00 0.00 59 1009.5
20260505194554 3 282 6.4 17.7 0.00 0.00 0.00 59 1009.4
20260505193059 3 308 4.8 19.3 0.00 0.00 0.00 58 1009.3
20260505191556 2 291 3.2 14.5 0.00 0.00 0.00 58 1009.2
20260505190056 3 281 3.2 17.7 0.00 0.00 0.00 59 1009.0
20260505184554 2 302 4.8 19.3 0.00 0.00 0.00 57 1008.8
20260505183054 2 5 3.2 19.3 0.00 0.00 0.00 58 1008.9
20260505181552 2 307 3.2 14.5 0.00 0.00 0.00 58 1008.9
20260505180056 1 0 1.6 17.7 0.00 0.00 0.00 60 1008.9
20260505174556 1 295 3.2 22.5 0.00 0.00 0.00 62 1008.8
20260505173052 1 299 3.2 17.7 0.00 0.00 0.00 60 1008.7
20260505171556 1 14 1.6 12.9 0.00 0.00 0.00 64 1008.6
20260505170055 0 267 1.6 17.7 0.00 0.00 0.00 66 1008.8
20260505164556 0 26 3.2 24.1 0.00 0.00 0.00 64 1008.6
20260505163052 0 328 11.3 22.5 0.00 0.00 0.00 66 1008.4
20260505161548 0 317 3.2 12.9 0.00 0.00 0.00 74 1008.2
20260505153057 -1 286 3.2 16.1 0.00 0.00 0.00 75 1007.9
20260505151553 -1 300 1.6 16.1 0.00 0.00 0.00 76 1007.7
20260505140109 -2 257 4.8 14.5 0.00 0.00 0.00 76 1007.0